Wind_Speed
9 8 8 7 7 6 5 4 3 3 2 2 3 4 4 6 6 6 6 6 6 6 6 6 7 6 6 6 6 6 6 6 6 6 6 6 6 6 7 7 7 7 7
9 8 8 8 7 6 5 4 3 2 2 2 3 3 5 5 5 5 6 6 6 6 6 6 6 6 5 5 5 5 6 6 6 6 6 6 6 6 6 7 7 7 7
9 8 8 8 7 6 5 4 3 3 2 2 2 3 4 4 4 4 5 5 5 6 6 5 6 5 5 5 5 5 5 5 5 5 6 7 6 6 7 6 7 7 7
9 8 8 7 7 6 5 4 3 2 2 2 1 1 2 3 4 4 4 5 5 5 6 5 5 5 5 5 4 5 5 5 4 5 6 6 6 7 6 6 7 6 6
9 8 8 8 6 5 5 4 3 2 1 2 2 1 2 2 3 3 4 5 5 5 5 5 5 5 5 5 4 4 4 5 5 6 7 7 6 6 6 6 6 5 6
8 7 6 6 6 5 4 4 3 2 1 1 2 2 2 3 3 2 3 4 4 4 4 5 5 5 5 5 4 4 4 5 5 6 7 6 6 6 5 5 5 5 5
8 7 6 6 5 4 3 3 2 2 1 1 1 2 2 3 3 3 3 3 3 3 4 4 5 5 5 4 4 4 5 5 6 6 6 6 6 5 5 5 5 5 5
8 7 7 6 5 4 3 3 3 2 1 1 1 1 2 2 3 3 3 3 3 3 4 5 5 5 5 4 5 5 5 6 6 6 6 5 5 5 5 5 5 5 4
9 8 7 6 5 4 3 2 2 2 2 1 1 1 1 2 2 3 3 3 3 3 3 4 5 5 5 5 5 5 5 5 6 6 5 5 5 5 5 4 4 4 4
12 10 9 8 6 4 4 2 2 2 2 1 2 1 1 1 2 3 3 3 2 2 3 4 4 4 5 5 5 5 5 6 6 5 5 5 5 4 4 4 5 4 4
12 11 11 10 8 6 4 3 2 2 2 2 1 1 1 2 2 2 2 3 3 3 4 4 5 5 5 5 5 5 5 5 5 4 4 4 4 4 4 4 4 4 3
13 12 11 10 9 8 6 4 3 3 2 2 2 2 2 2 2 2 3 3 4 4 5 5 4 5 5 5 5 4 5 4 4 3 3 3 3 3 3 4 4 3 2
14 13 13 11 10 9 7 5 4 3 3 2 2 2 2 3 2 2 3 4 4 4 4 4 4 4 5 5 5 5 4 4 3 3 3 3 3 3 3 3 3 3 2
15 14 13 12 11 10 9 6 5 4 4 3 3 3 3 2 2 3 4 4 4 4 4 4 3 4 4 4 5 4 4 4 3 3 3 3 3 3 3 3 3 3 3
16 15 14 12 11 11 10 8 7 6 5 4 4 4 3 2 3 3 3 3 4 3 3 3 3 4 4 4 4 3 4 3 3 3 3 3 3 3 3 3 3 4 4
17 16 14 13 12 12 11 10 8 6 6 5 4 3 3 3 3 3 3 3 3 3 3 4 4 4 4 4 4 4 3 3 3 3 3 3 4 4 5 5 5 5 5
17 16 14 13 12 12 11 10 9 7 6 5 4 4 3 3 3 2 2 3 3 3 4 4 4 4 4 4 3 4 4 4 4 4 4 4 4 5 5 5 5 5 5
17 16 15 13 12 11 10 10 9 7 5 4 3 3 2 2 2 2 2 2 2 3 4 4 5 4 4 4 4 4 4 5 5 5 5 5 5 6 5 5 6 6 7
17 16 15 13 12 11 10 10 9 7 5 4 3 2 2 2 2 2 2 2 3 3 4 4 5 5 4 4 5 5 5 6 6 6 7 7 7 7 7 7 7 7 8
17 15 14 13 11 10 10 10 9 7 6 5 3 2 2 2 2 3 3 3 3 3 4 4 5 5 5 5 5 6 5 6 7 8 8 8 8 8 8 9 9 9 9
16 15 14 13 12 11 10 9 9 8 6 5 4 2 2 2 3 3 3 3 3 3 4 4 5 5 5 5 6 6 7 7 8 9 9 9 9 10 10 10 10 11 11
15 14 13 13 12 11 10 10 9 8 7 6 4 3 2 2 2 2 2 2 3 3 4 4 5 5 6 7 7 7 8 8 9 10 10 11 11 11 12 12 12 12 13
15 14 14 13 11 10 10 10 10 8 6 6 5 4 3 2 1 1 2 2 3 3 3 4 5 6 7 7 7 7 8 8 9 10 10 11 12 12 12 12 13 13 13
14 14 14 12 11 10 10 10 10 8 6 5 5 4 3 2 1 0 2 2 3 3 3 4 5 6 7 7 7 8 8 8 9 10 11 11 11 12 12 12 12 13 14
12 13 13 12 11 10 9 9 9 8 7 6 5 4 4 3 2 2 2 3 3 4 4 5 6 7 7 7 8 8 8 9 9 10 11 12 12 12 12 12 13 13 14
11 12 12 12 11 11 9 9 8 7 7 5 5 4 3 4 3 3 3 3 4 5 5 5 6 7 8 9 9 9 9 10 10 10 11 12 12 13 13 13 13 14 15
Wind_Direction
65 71 76 82 91 94 93 106 131 138 159 189 185 171 169 163 159 157 157 154 152 148 146 148 145 141 137 135 133 129 126 123 123 123 122 123 118 116 118 116 117 115 113
65 68 75 78 87 93 95 95 98 118 120 151 166 164 158 157 160 159 160 158 158 154 153 153 153 149 143 138 137 136 131 130 127 128 126 123 122 121 122 119 117 116 116
64 69 73 78 86 87 90 96 92 108 132 130 129 149 162 161 151 159 158 156 155 152 153 157 156 152 147 148 147 145 143 141 138 136 128 126 124 122 122 124 122 119 116
64 67 72 76 80 83 84 86 85 110 131 135 140 160 181 171 159 157 158 152 152 154 154 158 157 154 148 151 153 150 146 146 138 140 133 128 125 121 120 123 122 120 115
61 63 68 75 77 80 85 84 75 87 119 139 145 174 200 185 172 163 163 158 160 161 159 157 157 159 160 160 156 153 150 149 143 141 136 132 127 123 121 121 116 119 118
56 58 61 67 71 79 83 86 82 75 90 126 151 177 191 182 175 173 175 168 168 170 172 164 159 160 163 162 161 157 150 150 147 141 140 135 134 129 124 122 121 120 120
52 53 56 62 66 76 82 93 95 89 89 110 157 184 187 189 177 175 182 183 181 178 178 170 162 164 163 162 156 145 141 145 143 139 139 135 139 137 135 135 131 128 124
49 49 50 60 66 65 73 86 99 97 112 152 179 175 180 185 177 178 187 182 185 190 188 180 170 167 163 158 151 145 144 139 137 136 131 132 136 140 139 141 137 133 126
49 48 45 51 59 59 71 93 105 103 116 141 169 173 176 186 187 189 186 185 187 189 190 184 174 165 159 151 146 146 147 143 135 134 138 142 139 142 140 142 146 142 133
48 48 48 48 50 58 72 96 119 114 116 137 148 163 168 176 169 177 184 182 179 188 187 181 171 159 149 146 148 153 153 146 140 141 144 148 147 150 149 146 145 141 144
49 49 47 48 53 60 70 78 89 115 128 136 141 148 154 170 173 179 179 174 174 167 167 165 164 159 158 157 158 162 158 147 148 147 149 151 155 158 158 153 152 150 151
48 49 49 50 54 57 61 67 82 100 123 130 143 161 173 170 179 185 165 164 166 163 162 163 170 171 171 171 171 172 164 153 152 154 159 158 162 166 167 164 162 166 162
47 46 46 48 52 53 56 62 73 79 92 124 138 144 157 159 164 165 157 159 164 161 159 162 166 176 176 174 173 169 166 165 166 168 170 176 177 183 182 178 184 190 197
48 48 48 49 51 52 53 59 67 71 82 107 127 130 132 143 153 158 157 163 166 161 160 163 164 170 168 169 167 166 176 179 180 183 191 198 199 202 200 200 207 219 227
47 48 48 50 52 52 51 50 60 71 86 98 111 120 131 139 135 148 161 161 167 164 159 163 161 166 169 173 177 188 199 200 207 212 212 216 222 226 230 236 238 243 243
43 45 48 49 51 51 51 50 54 70 91 100 112 120 126 140 141 142 147 162 172 172 170 170 173 176 175 183 198 209 216 224 227 233 229 229 238 244 244 244 249 255 255
37 40 42 46 47 48 47 48 49 63 82 93 106 113 115 126 151 152 154 158 178 187 181 181 182 185 190 201 212 225 233 231 236 240 245 250 254 251 248 244 249 255 257
33 34 36 40 43 46 45 46 48 55 65 82 101 122 131 129 138 148 146 154 179 198 197 194 197 205 208 213 223 237 246 242 246 250 255 257 259 254 252 253 255 256 260
31 31 31 33 37 42 42 42 45 51 53 65 90 125 158 164 155 162 174 185 200 207 209 209 217 221 222 226 235 248 254 249 253 257 255 258 258 256 260 264 263 262 262
29 29 28 29 34 37 38 36 36 41 47 53 61 68 129 167 162 170 183 190 201 209 216 218 224 232 238 241 247 254 259 259 257 257 260 260 259 260 263 264 266 266 266
26 26 27 27 30 33 33 34 36 42 46 49 47 56 115 155 169 170 180 190 199 210 222 228 232 233 241 250 256 258 258 261 259 260 261 262 262 264 265 267 266 265 266
21 22 25 25 27 30 32 31 32 39 43 49 52 60 92 123 150 172 193 199 214 228 237 237 236 244 252 258 261 262 262 262 262 262 262 263 266 264 265 267 267 269 268
19 20 22 23 25 27 27 26 24 28 31 44 50 61 69 89 134 178 208 228 232 239 246 245 246 251 257 262 268 270 265 265 266 265 264 264 268 268 267 269 270 272 272
16 19 20 21 23 24 25 24 23 25 28 36 44 49 45 30 12 240 229 235 238 252 263 259 256 259 263 266 269 268 268 267 266 272 273 272 271 269 266 271 273 272 273
12 15 17 19 20 22 23 22 20 23 27 26 30 28 23 8 345 304 278 266 261 265 270 264 261 263 266 269 270 272 272 270 268 271 275 277 274 273 273 273 275 275 277
6 10 13 16 17 18 19 20 19 20 23 22 18 11 8 5 359 335 303 287 283 279 273 270 268 270 270 269 271 274 277 274 274 274 275 277 277 276 275 274 275 277 278
Height
5888 5887 5887 5887 5887 5887 5887 5888 5888 5888 5888 5888 5888 5889 5889 5889 5889 5890 5891 5891 5891 5892 5892 5893 5894 5894 5895 5895 5896 5896 5896 5896 5896 5896 5896 5896 5896 5897 5897 5897 5897 5897 5897
5889 5888 5888 5888 5888 5888 5888 5888 5889 5889 5889 5889 5889 5889 5890 5890 5890 5891 5891 5891 5892 5892 5893 5894 5894 5895 5895 5896 5896 5897 5897 5897 5897 5897 5897 5897 5897 5897 5898 5898 5898 5898 5898
5890 5889 5888 5888 5888 5889 5889 5889 5889 5890 5890 5890 5890 5891 5891 5891 5891 5891 5892 5892 5893 5893 5894 5894 5895 5895 5896 5896 5897 5897 5897 5897 5897 5897 5897 5898 5898 5898 5899 5899 5899 5899 5899
5891 5890 5890 5889 5889 5889 5889 5890 5890 5890 5891 5891 5891 5892 5892 5892 5892 5892 5893 5893 5893 5894 5894 5895 5895 5896 5896 5897 5897 5897 5897 5897 5898 5898 5898 5899 5899 5899 5899 5900 5900 5900 5900
5891 5891 5891 5890 5890 5890 5890 5890 5890 5891 5891 5891 5892 5892 5893 5893 5893 5893 5894 5894 5894 5895 5895 5896 5896 5896 5897 5897 5897 5897 5898 5898 5898 5898 5899 5899 5899 5900 5900 5900 5900 5901 5901
5892 5892 5891 5891 5891 5891 5891 5891 5891 5891 5892 5892 5892 5893 5893 5893 5894 5894 5894 5894 5895 5895 5896 5896 5896 5897 5897 5897 5897 5898 5898 5898 5898 5898 5899 5899 5900 5900 5901 5901 5901 5901 5901
5893 5893 5892 5891 5891 5891 5891 5891 5892 5892 5892 5892 5893 5893 5893 5894 5894 5894 5895 5895 5895 5895 5896 5896 5897 5897 5897 5897 5898 5898 5898 5898 5899 5899 5899 5900 5900 5900 5901 5901 5901 5901 5902
5894 5893 5893 5892 5892 5892 5892 5892 5892 5892 5893 5893 5893 5894 5894 5894 5895 5895 5895 5895 5896 5896 5896 5896 5897 5897 5898 5898 5898 5898 5898 5899 5899 5899 5900 5900 5900 5901 5901 5901 5901 5902 5902
5895 5894 5893 5893 5892 5892 5892 5892 5892 5893 5893 5893 5893 5894 5894 5895 5895 5895 5895 5896 5896 5896 5896 5896 5897 5898 5898 5898 5898 5899 5899 5899 5899 5900 5900 5900 5901 5901 5901 5901 5902 5902 5902
5896 5895 5894 5893 5893 5892 5892 5892 5892 5893 5893 5893 5894 5894 5894 5894 5894 5895 5895 5896 5896 5896 5896 5897 5897 5898 5898 5899 5899 5899 5900 5900 5900 5900 5901 5901 5901 5901 5902 5902 5902 5902 5902
5897 5896 5895 5894 5893 5892 5892 5892 5892 5893 5893 5894 5894 5894 5894 5895 5895 5895 5895 5896 5896 5896 5896 5897 5897 5898 5898 5899 5899 5900 5900 5900 5900 5901 5901 5901 5901 5902 5902 5902 5902 5902 5902
5898 5897 5896 5895 5894 5893 5893 5892 5892 5893 5893 5894 5894 5894 5894 5895 5895 5895 5895 5896 5896 5896 5897 5897 5898 5898 5898 5899 5900 5900 5900 5901 5901 5901 5901 5901 5902 5902 5902 5902 5902 5902 5902
5900 5898 5897 5896 5895 5894 5893 5893 5893 5893 5893 5893 5894 5894 5894 5895 5895 5895 5895 5896 5896 5897 5897 5897 5898 5898 5899 5899 5900 5900 5901 5901 5901 5901 5901 5902 5902 5902 5902 5902 5902 5902 5902
5902 5900 5898 5897 5896 5895 5894 5893 5893 5893 5893 5893 5893 5894 5894 5895 5895 5895 5895 5896 5897 5897 5897 5898 5898 5898 5899 5899 5900 5901 5901 5901 5901 5901 5901 5902 5902 5902 5902 5902 5901 5901 5901
5903 5902 5900 5899 5898 5897 5896 5894 5894 5893 5893 5893 5893 5894 5894 5895 5895 5895 5895 5896 5896 5897 5897 5898 5898 5899 5899 5900 5900 5901 5901 5901 5901 5901 5901 5902 5902 5902 5902 5901 5901 5901 5900
5905 5903 5902 5900 5899 5898 5897 5895 5895 5894 5894 5894 5894 5894 5894 5895 5895 5896 5896 5896 5896 5897 5897 5897 5898 5899 5899 5900 5900 5901 5901 5901 5901 5901 5901 5901 5901 5901 5901 5901 5900 5900 5900
5907 5905 5903 5902 5900 5899 5898 5897 5896 5895 5895 5895 5894 5894 5894 5895 5895 5896 5896 5896 5896 5896 5897 5897 5898 5898 5899 5900 5900 5900 5900 5900 5900 5900 5900 5900 5900 5900 5900 5899 5899 5899 5899
5909 5906 5905 5903 5901 5900 5899 5898 5897 5896 5895 5895 5895 5895 5895 5895 5895 5896 5896 5896 5896 5896 5897 5897 5898 5898 5899 5899 5899 5899 5899 5899 5899 5899 5899 5899 5899 5899 5899 5898 5898 5898 5897
5910 5908 5906 5904 5903 5902 5900 5899 5898 5897 5896 5895 5895 5894 5895 5895 5895 5896 5896 5896 5896 5896 5897 5897 5897 5898 5898 5898 5898 5898 5898 5898 5898 5898 5898 5898 5898 5897 5897 5897 5896 5896 5896
5912 5910 5908 5906 5904 5902 5901 5900 5899 5897 5896 5896 5895 5894 5894 5895 5895 5895 5895 5895 5896 5896 5896 5897 5897 5897 5897 5897 5897 5897 5897 5897 5897 5897 5896 5896 5896 5895 5895 5895 5894 5894 5893
5914 5912 5909 5907 5905 5903 5902 5901 5900 5898 5897 5896 5895 5894 5894 5894 5894 5895 5895 5895 5895 5895 5896 5896 5896 5896 5896 5896 5896 5896 5895 5895 5895 5895 5894 5894 5894 5893 5892 5892 5892 5891 5890
5915 5913 5910 5908 5906 5904 5903 5902 5900 5899 5898 5896 5895 5895 5894 5894 5894 5894 5894 5894 5894 5894 5894 5894 5895 5895 5895 5894 5894 5894 5894 5894 5893 5892 5892 5891 5891 5890 5890 5889 5888 5888 5887
5916 5914 5911 5909 5907 5905 5904 5902 5901 5899 5898 5897 5896 5895 5895 5894 5894 5894 5894 5894 5893 5893 5893 5893 5893 5893 5893 5893 5892 5892 5892 5891 5891 5890 5890 5889 5888 5887 5887 5886 5885 5884 5884
5917 5915 5912 5910 5908 5906 5904 5902 5901 5899 5898 5897 5896 5895 5895 5894 5894 5893 5893 5893 5892 5892 5892 5891 5891 5891 5891 5890 5890 5890 5890 5889 5889 5888 5887 5887 5886 5885 5884 5884 5882 5881 5880
5918 5915 5913 5911 5909 5907 5905 5903 5901 5899 5898 5897 5896 5895 5895 5894 5893 5892 5892 5892 5891 5891 5890 5890 5890 5889 5889 5888 5888 5887 5887 5886 5886 5885 5885 5884 5883 5882 5881 5880 5879 5878 5877
5918 5916 5914 5911 5909 5907 5905 5903 5901 5899 5898 5897 5896 5895 5894 5893 5892 5891 5891 5890 5890 5889 5889 5888 5888 5887 5887 5886 5886 5885 5884 5883 5883 5882 5881 5880 5880 5879 5878 5877 5876 5875 5874